User: anonymous   Login
Location: Lawrence Hall of Science
(37.8785°N, 122.2415°W)
Time: 22:47:35
(UTC-07:00)
Language:

Cosmos 2098 Rocket - Orbit

View from above orbital plane
View from above orbital plane
View from above satellite
View from above satellite

Ground track
Ground track

The orbit data is extracted from the following two-line orbital elements,

1 20775U 90078B   15141.98795413  .00010979  00000-0  57003-3 0  9997
2 20775 082.9304 306.1840 0616089 145.0939 339.8294 14.24202918240717
Epoch (UTC): 21 May 2015 23:42:39
Eccentricity: 0.0616089
inclination: 82.9304°
perigee height: 368 km
apogee height: 1254 km
right ascension of ascending node: 306.1840°
argument of perigee: 145.0939°
revolutions per day: 14.24202918
mean anomaly at epoch: 339.8294°
orbit number at epoch: 24071

The dashed part of the orbit path shows where the satellite is in the earth's shadow,  

DLR